Powrót do katalogu

CZ-6A DEB

AktywnyPO
NORAD 61801·DEBRIS·🇨🇳 China

Wystrzelony Aug 6, 2024 z Taiyuan Satellite Launch Center

Loading…

Następne Przeloty (najbliższe 24 godziny)

TLE

ŚwieżeSource: Space-Track

Epoka: Sep 13, 2026, 07:30 UTC

1 61801U 24140ABR 26256.31277844  .00003983  00000-0  10601-2 0  9997
2 61801  88.4515 210.6569 0124295  85.4010 276.1377 14.43809982106467

Śledź CZ-6A DEB w czasie rzeczywistym z AllMySat

Download on the App Store